TimeEST,TemperatureF,Dew PointF,Humidity,Sea Level PressureIn,VisibilityMPH,Wind Direction,Wind SpeedMPH,Gust SpeedMPH,PrecipitationIn,Events,Conditions,WindDirDegrees,DateUTC
12:15 AM,24.8,19.4,80,29.97,0.8,ENE,12.7,17.3,N/A,,Overcast,60,2012-12-27 05:15:00
12:35 AM,24.8,19.4,80,29.95,0.8,ENE,11.5,20.7,N/A,,Overcast,60,2012-12-27 05:35:00
12:55 AM,24.8,19.4,80,29.95,1.0,NE,13.8,19.6,N/A,,Overcast,50,2012-12-27 05:55:00
1:15 AM,24.8,19.4,80,29.94,1.2,NE,13.8,21.9,N/A,,Overcast,40,2012-12-27 06:15:00
1:35 AM,24.8,19.4,80,29.91,1.2,NE,16.1,24.2,N/A,,Overcast,50,2012-12-27 06:35:00
1:55 AM,24.8,19.4,80,29.91,2.5,NE,16.1,21.9,N/A,,Overcast,50,2012-12-27 06:55:00
2:15 AM,24.8,19.4,80,29.89,1.5,NE,15.0,24.2,N/A,,Overcast,50,2012-12-27 07:15:00
2:35 AM,24.8,19.4,80,29.87,1.8,NE,12.7,21.9,N/A,,Overcast,50,2012-12-27 07:35:00
2:55 AM,24.8,19.4,80,29.84,3.0,ENE,16.1,21.9,N/A,,Overcast,60,2012-12-27 07:55:00
3:15 AM,24.8,19.4,80,29.83,2.5,NE,15.0,23.0,N/A,,Overcast,50,2012-12-27 08:15:00
3:55 AM,24.8,19.4,80,29.79,3.0,NE,12.7,20.7,N/A,,Overcast,50,2012-12-27 08:55:00
4:55 AM,26.6,21.2,80,29.72,2.5,ENE,18.4,27.6,N/A,,Overcast,60,2012-12-27 09:55:00
5:15 AM,26.6,21.2,80,29.71,2.5,ENE,19.6,27.6,N/A,,Overcast,60,2012-12-27 10:15:00
5:35 AM,26.6,21.2,80,29.69,3.0,NE,18.4,28.8,N/A,,Overcast,50,2012-12-27 10:35:00
5:55 AM,26.6,21.2,80,29.68,1.5,ENE,24.2,31.1,N/A,,Overcast,60,2012-12-27 10:55:00
6:15 AM,26.6,21.2,80,29.66,2.0,ENE,20.7,31.1,N/A,,Overcast,60,2012-12-27 11:15:00
6:35 AM,26.6,21.2,80,29.63,2.5,NE,21.9,29.9,N/A,,Overcast,50,2012-12-27 11:35:00
6:55 AM,26.6,21.2,80,29.61,3.0,ENE,21.9,32.2,N/A,,Overcast,60,2012-12-27 11:55:00
7:15 AM,26.6,21.2,80,29.61,2.5,ENE,26.5,33.4,N/A,,Overcast,60,2012-12-27 12:15:00
7:35 AM,26.6,23.0,86,29.59,0.8,ENE,19.6,29.9,N/A,,Overcast,60,2012-12-27 12:35:00
7:55 AM,26.6,23.0,86,29.57,0.8,ENE,21.9,32.2,N/A,,Overcast,60,2012-12-27 12:55:00
8:15 AM,28.4,24.8,86,29.56,0.8,ENE,21.9,31.1,N/A,,Overcast,60,2012-12-27 13:15:00
8:35 AM,28.4,24.8,86,29.56,1.5,ENE,21.9,35.7,N/A,,Overcast,60,2012-12-27 13:35:00
9:55 AM,28.4,24.8,86,29.55,0.8,ENE,20.7,34.5,N/A,,Overcast,60,2012-12-27 14:55:00
10:15 AM,28.4,24.8,86,29.54,0.8,NE,17.3,27.6,N/A,,Overcast,50,2012-12-27 15:15:00
10:35 AM,28.4,24.8,86,29.51,0.2,ENE,23.0,36.8,N/A,,Overcast,60,2012-12-27 15:35:00
10:55 AM,28.4,24.8,86,29.50,0.5,NE,20.7,29.9,N/A,,Overcast,50,2012-12-27 15:55:00
11:15 AM,30.2,24.8,80,29.48,2.0,ENE,20.7,34.5,N/A,,Overcast,60,2012-12-27 16:15:00
11:35 AM,30.2,24.8,80,29.46,2.0,NE,21.9,33.4,N/A,,Overcast,50,2012-12-27 16:35:00
12:15 PM,30.2,24.8,80,29.42,1.8,ENE,26.5,41.4,N/A,,Overcast,60,2012-12-27 17:15:00
12:35 PM,30.2,24.8,80,29.42,1.0,NE,24.2,36.8,N/A,,Overcast,50,2012-12-27 17:35:00
12:55 PM,30.2,24.8,80,29.41,2.5,ENE,23.0,29.9,N/A,,Overcast,60,2012-12-27 17:55:00
1:35 PM,30.2,24.8,80,29.40,1.8,ENE,24.2,33.4,N/A,,Overcast,60,2012-12-27 18:35:00
2:15 PM,30.2,24.8,80,29.41,0.8,NE,18.4,31.1,N/A,,Overcast,50,2012-12-27 19:15:00
2:35 PM,30.2,24.8,80,29.42,0.5,NE,16.1,27.6,N/A,,Overcast,50,2012-12-27 19:35:00
2:55 PM,30.2,26.6,86,29.42,0.5,NE,15.0,27.6,N/A,,Overcast,40,2012-12-27 19:55:00
3:15 PM,30.2,26.6,86,29.43,0.5,NE,16.1,34.5,N/A,,Overcast,50,2012-12-27 20:15:00
3:55 PM,30.2,24.8,80,29.43,5.0,NE,15.0,24.2,0.01,,Overcast,50,2012-12-27 20:55:00
4:15 PM,30.2,24.8,80,29.44,10.0,NE,12.7,24.2,N/A,,Overcast,50,2012-12-27 21:15:00
4:35 PM,30.2,23.0,75,29.44,10.0,NE,12.7,23.0,N/A,,Overcast,50,2012-12-27 21:35:00
4:55 PM,30.2,23.0,75,29.45,10.0,NNE,12.7,19.6,N/A,,Overcast,30,2012-12-27 21:55:00
5:15 PM,32.0,23.0,69,29.46,10.0,NE,12.7,21.9,N/A,,Overcast,40,2012-12-27 22:15:00
5:35 PM,30.2,23.0,75,29.47,10.0,North,4.6,16.1,N/A,,Overcast,360,2012-12-27 22:35:00
5:55 PM,30.2,24.8,80,29.48,10.0,North,8.1,-,N/A,,Overcast,360,2012-12-27 22:55:00
6:15 PM,30.2,24.8,80,29.49,10.0,North,10.4,-,N/A,,Overcast,360,2012-12-27 23:15:00
6:35 PM,30.2,24.8,80,29.50,9.0,North,9.2,-,N/A,,Overcast,360,2012-12-27 23:35:00
6:55 PM,30.2,24.8,80,29.51,3.0,North,11.5,16.1,N/A,,Overcast,360,2012-12-27 23:55:00
7:15 PM,30.2,24.8,80,29.51,3.0,North,9.2,-,N/A,,Overcast,360,2012-12-28 00:15:00
7:35 PM,30.2,24.8,80,29.52,3.0,North,9.2,-,N/A,,Overcast,360,2012-12-28 00:35:00
7:55 PM,30.2,24.8,80,29.53,8.0,North,9.2,17.3,N/A,,Overcast,360,2012-12-28 00:55:00
8:15 PM,30.2,26.6,86,29.54,6.0,North,6.9,-,N/A,,Overcast,360,2012-12-28 01:15:00
8:35 PM,30.2,26.6,86,29.55,4.0,NNW,5.8,-,N/A,,Overcast,340,2012-12-28 01:35:00
8:55 PM,30.2,26.6,86,29.55,2.5,NNW,3.5,-,N/A,,Overcast,340,2012-12-28 01:55:00
9:55 PM,30.2,24.8,80,29.56,10.0,Calm,Calm,-,N/A,,Overcast,0,2012-12-28 02:55:00
10:15 PM,30.2,24.8,80,29.56,10.0,Calm,Calm,-,N/A,,Overcast,0,2012-12-28 03:15:00
10:35 PM,30.2,24.8,80,29.57,10.0,NW,8.1,-,N/A,,Overcast,320,2012-12-28 03:35:00
10:55 PM,30.2,24.8,80,29.57,10.0,West,3.5,-,N/A,,Overcast,260,2012-12-28 03:55:00
11:15 PM,30.2,23.0,75,29.57,10.0,West,9.2,-,N/A,,Overcast,280,2012-12-28 04:15:00
11:35 PM,28.4,23.0,80,29.58,10.0,West,8.1,-,N/A,,Overcast,270,2012-12-28 04:35:00
11:55 PM,28.4,23.0,80,29.59,10.0,West,9.2,-,N/A,,Overcast,260,2012-12-28 04:55:00